Regional Weather Roundup
Issued by NWS

Home | Current Version | Previous Version | Text Only | Print | Product List | Glossary On
Versions: 1 2 3 4 5 6 7 8 9 10 11 12 13 14 15 16 17 18 19 20 21 22 23 24 25 26 27 28 29 30 31 32 33 34 35 36 37 38 39 40 41 42 43 44 45 46 47 48 49 50
000
ASUS43 KOAX 290410
RWRNE

WEATHER ROUNDUP FOR NEBRASKA
NATIONAL WEATHER SERVICE OMAHA NE
1100 PM CDT SUN MAY 28 2017

NOTES: SATELLITE DATA IS BEING USED TO AUGMENT CLOUD COVER ABOVE
       12000 FEET.
       "FAIR" INDICATES FEW OR NO CLOUDS BELOW 12,000 FEET WITH NO
       SIGNIFICANT WEATHER AND/OR OBSTRUCTIONS TO VISIBILITY.

  * THESE STATIONS DO NOT REPORT WEATHER SUCH AS RAIN...SNOW OR FOG.

NEZ001>004-019>022-054>056-290500-
NEBRASKA PANHANDLE

CITY           SKY/WX    TMP DP  RH WIND       PRES   REMARKS
SCOTTSBLUFF    CLOUDY    54  46  74 CALM      30.19R
ALLIANCE       PTCLDY    48  45  89 NW3       30.14F
CHADRON        CLOUDY    50  47  89 W8        30.12R
GORDON         CLOUDY    53  46  77 W10       30.09R
KIMBALL        CLEAR     50  43  76 W9        30.23R
SIDNEY         CLEAR     46  43  89 SW9       30.19R
$$

NEZ057>060-069>072-079>082-290500-
SOUTHWEST NEBRASKA

CITY           SKY/WX    TMP DP  RH WIND       PRES   REMARKS
NORTH PLATTE   PTCLDY    56  47  71 NW5       30.10R
IMPERIAL       PTCLDY    57  46  66 NW7       30.12R
LEXINGTON      CLOUDY    61  50  66 N16G28    30.07R
MCCOOK         PTCLDY    58  47  66 N7        30.06S
OGALLALA       CLEAR     56  46  68 N12       30.16R
$$

NEZ005>010-023>029-035>040-094-290500-
NORTH CENTRAL NEBRASKA

CITY           SKY/WX    TMP DP  RH WIND       PRES   REMARKS
VALENTINE      PTCLDY    54  46  74 W10       30.01S
AINSWORTH      CLEAR     54  49  82 W7        30.01S
BROKEN BOW     PTCLDY    58  46  64 NW9       30.02F
O`NEILL        PTCLDY    60  44  57 W9        29.96F
ORD            PTCLDY    58  45  62 W7        29.97F
THEDFORD       PTCLDY    54  47  78 W8        30.07R
$$

NEZ041-046>049-061>064-073>077-083>087-290500-
SOUTH CENTRAL NEBRASKA

CITY           SKY/WX    TMP DP  RH WIND       PRES   REMARKS
GRAND ISLAND   CLOUDY    64  45  49 W6        29.98R
AURORA         PTCLDY    60  43  54 SW5       29.96S
HASTINGS       CLOUDY    64  48  56 W9        29.99S
HEBRON         CLEAR     60  52  75 CALM      29.96S
HOLDREGE       LGT RAIN  61  51  70 NW13G18   30.05R
KEARNEY *      MOCLDY    66  43  42 NW15      30.01S
YORK           CLEAR     59  41  51 W5        29.95S
$$

NEZ011>018-030>034-042>045-290500-
NORTHEAST NEBRASKA

CITY           SKY/WX    TMP DP  RH WIND       PRES   REMARKS
NORFOLK        CLOUDY    62  41  46 W9        29.92R
ALBION         CLOUDY    64  41  42 NW8       29.95R
BLAIR          CLEAR     64  39  39 SW3       29.90F
FREMONT        CLEAR     64  44  48 CALM      29.90F
TEKAMAH        PTCLDY    61  41  47 SW8       29.87F
WAYNE          CLOUDY    65  42  43 W6        29.90S
$$

NEZ050>053-065>068-078-088>093-290500-
SOUTHEAST NEBRASKA

CITY           SKY/WX    TMP DP  RH WIND       PRES   REMARKS
LINCOLN        CLEAR     63  45  51 CALM      29.93F
OMAHA EPPLEY   CLEAR     62  46  55 E3        29.89S
BEATRICE       CLEAR     61  46  57 CALM      29.95S
FALLS CITY     CLEAR     62  45  53 NW3       29.91S
NEBRASKA CITY  PTCLDY    67  33  27 W6        29.92S
PLATTSMOUTH    CLEAR     68  40  36 W3        29.90F
$$

NEZ044-045-051>053-067-290500-
OMAHA AREA

CITY           SKY/WX    TMP DP  RH WIND       PRES   REMARKS
OMAHA EPPLEY   CLEAR     62  46  55 E3        29.89S
BLAIR          CLEAR     64  39  39 SW3       29.90F
FREMONT        CLEAR     64  44  48 CALM      29.90F
MILLARD        CLEAR     61  47  61 CALM      29.90F
OFFUTT AFB     CLEAR     56  49  75 CALM      29.88F
PLATTSMOUTH    CLEAR     68  40  36 W3        29.90F
WAHOO          FAIR      61  40  47 SW9       29.91F
$$




USA.gov is the U.S. government's official web portal to all federal, state and local government web resources and services.